Change the Weather History Date:

Tuesday, September 3, 2013

  Actual Average Record
Temperature  
Mean Temperature 79 °F -  
Max Temperature 89 °F 83 °F 98 °F (1980)
Min Temperature 69 °F 66 °F 46 °F (1967)
Cooling Degree Days 14    
Growing Degree Days 29 (Base 50)    
Moisture  
Dew Point 72 °F    
Average Humidity 91    
Maximum Humidity 97    
Minimum Humidity 59    
Precipitation  
Precipitation 0.00 in - - ()
Sea Level Pressure  
Sea Level Pressure 29.87 in    
Wind  
Wind Speed 5 mph (SSW)    
Max Wind Speed 24 mph    
Max Gust Speed 30 mph    
Visibility 6 miles    
Events Rain    
Averages and records for this station are not official NWS values.
T = Trace of Precipitation, MM = Missing Value Source: NWS Daily Summary

Daily Weather History Graph

Daily Weather History Graph

Search for Another Location

Airport or City:

Trip Planner

Search our weather history database for the weather conditions in past years. The results will help you decide how hot, cold, wet, or windy it might be!

Date:

Astronomy

Sep. 03, 2013 Rise Set
Actual Time 6:44 AM EDT 7:34 PM EDT
Civil Twilight 6:18 AM EDT 8:00 PM EDT
Nautical Twilight 5:48 AM EDT 8:30 PM EDT
Astronomical Twilight 5:16 AM EDT 9:01 PM EDT
Moon 4:58 AM EDT (9/3) 6:19 PM EDT (9/3)
Length of Visible Light 13h 41m
Length of Day
12h 49m
Waning Crescent, 3% of the Moon is Illuminated
Sep 3
Waning Crescent
Sep 5
New
Sep 12
First Quarter
Sep 19
Full
Sep 26
Last Quarter

Hourly Weather History & Observations

Time (EDT) Temp. Heat Index Dew Point Humidity Pressure Visibility Wind Dir Wind Speed Gust Speed Precip Events Conditions
12:15 AM 77.0 °F - 74.3 °F 91% 29.86 in 7.0 mi SSW 6.9 mph - N/A   Clear
12:35 AM 77.0 °F - 74.5 °F 92% 29.86 in 7.0 mi SSW 6.9 mph - N/A   Clear
12:55 AM 76.6 °F - 74.5 °F 93% 29.86 in 5.0 mi SSW 4.6 mph - N/A   Clear
1:15 AM 76.3 °F - 74.7 °F 95% 29.85 in 4.0 mi SSW 4.6 mph - N/A   Clear
1:35 AM 76.3 °F - 74.7 °F 95% 29.85 in 4.0 mi SSW 4.6 mph - N/A   Clear
1:55 AM 76.3 °F - 75.0 °F 96% 29.85 in 4.0 mi SSW 5.8 mph - N/A   Mostly Cloudy
2:15 AM 76.3 °F - 75.2 °F 96% 29.84 in 3.0 mi SSW 4.6 mph - N/A   Overcast
2:35 AM 76.5 °F - 75.2 °F 96% 29.84 in 4.0 mi SSW 3.5 mph - N/A   Overcast
2:55 AM 76.3 °F - 75.2 °F 96% 29.84 in 3.0 mi SW 3.5 mph - N/A   Overcast
3:15 AM 76.3 °F - 75.2 °F 96% 29.84 in 4.0 mi SSW 3.5 mph - N/A   Scattered Clouds
3:35 AM 76.1 °F - 74.8 °F 96% 29.84 in 3.0 mi Calm Calm - N/A   Mist
3:55 AM 75.7 °F - 74.7 °F 96% 29.83 in 3.0 mi Calm Calm - N/A   Mist
4:15 AM 75.6 °F - 74.5 °F 96% 29.83 in 4.0 mi South 3.5 mph - N/A   Clear
4:35 AM 75.7 °F - 74.5 °F 96% 29.83 in 4.0 mi SSW 4.6 mph - N/A   Scattered Clouds
4:55 AM 75.2 °F - 74.1 °F 96% 29.83 in 5.0 mi SW 4.6 mph - N/A   Clear
5:15 AM 75.2 °F - 73.8 °F 95% 29.83 in 5.0 mi SSW 3.5 mph - N/A   Clear
5:35 AM 75.0 °F - 73.6 °F 95% 29.83 in 5.0 mi South 3.5 mph - N/A   Clear
5:55 AM 74.8 °F - 73.6 °F 96% 29.84 in 4.0 mi SSW 3.5 mph - N/A   Clear
6:15 AM 74.5 °F - 73.4 °F 96% 29.85 in 5.0 mi South 4.6 mph - N/A   Clear
6:35 AM 74.8 °F - 73.4 °F 95% 29.85 in 5.0 mi South 4.6 mph - N/A   Clear
6:55 AM 74.7 °F - 73.4 °F 96% 29.85 in 4.0 mi SSW 3.5 mph - N/A   Clear
6:56 AM 75.2 °F - 73.4 °F 94% 29.85 in 4.0 mi SSW 3.5 mph - N/A   Clear
8:56 AM 78.8 °F - 71.6 °F 78% 29.88 in 7.0 mi SW 8.1 mph - N/A   Clear
9:56 AM 80.6 °F 85.4 °F 73.4 °F 79% 29.88 in 7.0 mi SW 4.6 mph - N/A   Clear
10:56 AM 82.4 °F 88.2 °F 73.4 °F 74% 29.89 in 7.0 mi SSW 8.1 mph - N/A   Clear
11:56 AM 86.0 °F 93.4 °F 73.4 °F 66% 29.88 in 7.0 mi SSW 8.1 mph - N/A   Clear
12:56 PM 89.6 °F 99.8 °F 75.2 °F 62% 29.86 in 7.0 mi WSW 10.4 mph 16.1 mph N/A   Clear
1:56 PM 89.6 °F 98.2 °F 73.4 °F 59% 29.83 in 7.0 mi SW 12.7 mph - N/A   Mostly Cloudy
2:56 PM 84.2 °F 89.6 °F 71.6 °F 66% 29.82 in 7.0 mi East 8.1 mph - N/A   Scattered Clouds
3:56 PM 73.4 °F - 69.8 °F 88% 29.85 in 3.0 mi East 8.1 mph 27.6 mph N/A Rain Light Rain
4:09 PM 73.4 °F - 69.8 °F 88% 29.84 in 1.5 mi North 24.2 mph 29.9 mph N/A Rain Rain
4:56 PM 73.4 °F - 69.8 °F 88% 29.85 in 2.0 mi WNW 9.2 mph - N/A   Overcast
5:56 PM 73.4 °F - 71.6 °F 94% 29.86 in 7.0 mi Calm Calm - N/A   Mostly Cloudy
6:56 PM 71.6 °F - 69.8 °F 94% 29.87 in 7.0 mi South 5.8 mph - N/A   Clear
7:56 PM 71.6 °F - 69.8 °F 94% 29.88 in 7.0 mi NE 6.9 mph - N/A   Scattered Clouds
8:56 PM 71.6 °F - 69.8 °F 94% 29.90 in 10.0 mi Calm Calm - N/A   Clear
9:15 PM 71.1 °F - 69.8 °F 96% 29.92 in 10.0 mi South 4.6 mph - N/A   Scattered Clouds
9:35 PM 71.2 °F - 69.8 °F 95% 29.93 in 10.0 mi Calm Calm - N/A   Mostly Cloudy
9:55 PM 70.9 °F - 69.4 °F 95% 29.93 in 10.0 mi Calm Calm - N/A   Scattered Clouds
10:15 PM 70.3 °F - 69.1 °F 96% 29.93 in 7.0 mi Calm Calm - N/A   Clear
10:35 PM 70.0 °F - 69.1 °F 97% 29.93 in 5.0 mi SW 3.5 mph - N/A   Clear
10:55 PM 69.8 °F - 68.9 °F 97% 29.93 in 10.0 mi SW 3.5 mph - N/A   Clear
11:15 PM 70.2 °F - 69.3 °F 97% 29.94 in 10.0 mi Calm Calm - N/A   Clear
11:35 PM 69.8 °F - 68.9 °F 97% 29.94 in 10.0 mi Calm Calm - N/A   Clear
11:55 PM 70.2 °F - 69.3 °F 97% 29.94 in 7.0 mi Calm Calm - N/A   Clear